This is the latest recevied weather packets stored in our database for station/object KV4OP. If no packets are shown the sender has not sent any weather packets the latest 10 day(s).
| Time | Temp. | Humidity | Pressure | Rain* | Wind** | Luminosity | Snow |
|---|---|---|---|---|---|---|---|
| 1777558860 | 25.56° C | 73% | 1012.6 hPa | 0 mm | - | - | - |
| 1777558559 | 25.56° C | 74% | 1012.6 hPa | 0 mm | - | - | - |
| 1777558258 | 25.56° C | 74% | 1012.4 hPa | 0 mm | - | - | - |
| 1777557959 | 25.56° C | 74% | 1012.5 hPa | 0 mm | - | - | - |
| 1777557667 | 25.56° C | 74% | 1012.8 hPa | 0 mm | - | - | - |
| 1777557357 | 25.56° C | 74% | 1012.7 hPa | 0 mm | - | - | - |
| 1777557057 | 25.56° C | 74% | 1012.8 hPa | 0 mm | - | - | - |
| 1777556757 | 25.56° C | 75% | 1012.9 hPa | 0 mm | - | - | - |
| 1777555858 | 25° C | 77% | 1012.9 hPa | 0 mm | - | - | - |
| 1777555555 | 25° C | 77% | 1012.9 hPa | 0 mm | - | - | - |
| 1777555255 | 24.44° C | 77% | 1013 hPa | 0 mm | - | - | - |
| 1777554955 | 25° C | 77% | 1013 hPa | 0 mm | - | - | - |
| 1777554657 | 25° C | 77% | 1013 hPa | 0 mm | - | - | - |
| 1777554354 | 25° C | 78% | 1012.9 hPa | 0 mm | - | - | - |
| 1777553753 | 25° C | 80% | 1013.1 hPa | 0 mm | - | - | - |
| 1777553453 | 24.44° C | 80% | 1013.1 hPa | 0 mm | - | - | - |
| 1777552252 | 23.89° C | 85% | 1013.1 hPa | 0 mm | - | - | - |
| 1777551953 | 23.33° C | 85% | 1013 hPa | 0 mm | - | - | - |
| 1777551653 | 23.33° C | 86% | 1012.9 hPa | 0 mm | - | - | - |
| 1777551352 | 23.33° C | 86% | 1012.8 hPa | 0 mm | - | - | - |
| 1777550753 | 22.78° C | 87% | 1012.6 hPa | 0 mm | - | - | - |
| 1777550151 | 22.78° C | 87% | 1012.6 hPa | 0 mm | - | - | - |
| 1777549252 | 22.78° C | 88% | 1012.4 hPa | 0 mm | - | - | - |
| 1777548951 | 22.78° C | 88% | 1012.5 hPa | 0 mm | - | - | - |
| 1777548651 | 22.78° C | 88% | 1012.4 hPa | 0 mm | - | - | - |
* Rain latest hour (hover to see other rain measurements)
** Current wind speed in m/s (hover to see current wind gust speed)